Tracking 33188 objects as of 10-Feb-2026
HD Live streaming from Space Station
objects crossing your sky now

WESTPAC

Track WESTPAC now!
10-day predictions
WESTPAC is classified as:


NORAD ID: 25398
Int'l Code: 1998-043E
Perigee: 821.4 km
Apogee: 823.0 km
Inclination: 99.0 °
Period: 101.2 minutes
Semi major axis: 7193 km
RCS: 0.165 m2 (medium)
Launch date: July 10, 1998
Source: Australia (AUS)
Launch site: TYURATAM MISSILE AND SPACE COMPLEX (TTMTR)
Your satellite tracking list
Your tracking list is empty




NASA's NSSDC Master Catalog

Two Line Element Set (TLE):
1 25398U 98043E   26041.56714392  .00000003  00000-0  21943-4 0  9997
2 25398  99.0024  24.6900 0001116 164.7065 195.4146 14.23044664432937
Source of the keplerian elements: AFSPC